{"data":{"norad_id":54158,"epoch":"2026-09-20T22:00:03.000096Z","epoch_age_seconds":53256,"freshness":"FRESH","line1":"1 54158U 22141B   26263.91670139  .00000283  00000+0  19930-4 0  9996","line2":"2 54158  53.1687 215.5363 0000870  72.2007 213.4654 15.33549080  5809","mean_motion":15.3354908,"eccentricity":8.7e-5,"inclination_deg":53.1687,"raan_deg":215.5363,"arg_perigee_deg":72.2007,"mean_anomaly_deg":213.4654,"bstar":1.993e-5,"rev_number":580,"period_min":93.899831363728,"perigee_km":464.63814990328,"apogee_km":465.82889637431,"semimajor_km":6843.3705231388,"source":"CELESTRAK","updated_at":"2026-09-21T09:00:33.087064Z"}}